Terminal Aerodrome Forecast
Issued by NWS Brownsville, TX

Home | Current Version | Previous Version | Text Only | Print | Product List | Glossary On
Versions: 1 2 3 4 5 6 7 8 9 10 11 12 13 14 15 16 17 18 19 20 21 22 23 24 25 26 27 28 29 30 31 32 33 34
000
FTUS44 KBRO 261720
TAFMFE
TAF
KMFE 261720Z 2618/2718 16015G20KT P6SM VCSH SCT025
      TEMPO 2619/2623 5SM -TSRA BKN025CB
     FM270200 14012G18KT P6SM VCSH BKN015 PROB30 2704/2708 4SM -TSRA
      BKN010CB=

USA.gov is the U.S. government's official web portal to all federal, state and local government web resources and services.